User: anonymous   Login
Location: Goheenville
(40.9070°N, 79.3720°W)
Time: 10:38:50
(UTC-04:00)
Language:

Cosmos 1633 - Orbit

View from above orbital plane
View from above orbital plane
View from above satellite
View from above satellite

Ground track
Ground track

The orbit data is extracted from the following two-line orbital elements,

1 15592U 85020A   15110.21851573  .00010548  00000-0  44168-3 0  9991
2 15592 082.5432 027.3116 0017819 079.4536 033.7817 15.23271415643944
Epoch (UTC): 20 April 2015 05:14:39
Eccentricity: 0.0017819
inclination: 82.5432°
perigee height: 484 km
apogee height: 508 km
right ascension of ascending node: 27.3116°
argument of perigee: 79.4536°
revolutions per day: 15.23271415
mean anomaly at epoch: 33.7817°
orbit number at epoch: 64394

The dashed part of the orbit path shows where the satellite is in the earth's shadow,  

DLR